Location: Brienzwiler
(46.7508°N, 8.1014°E)
Time: 01:31:41
(UTC+00:00)

Atlas Centaur 2 - Pass Details

Date: 05 July 2020
Orbit: 459 x 1310 km, 30.4° (Epoch: 11 August)

Event Time Altitude Azimuth Distance (km) Brightness Sun altitude
Rises 22:16:00 0° 247° (WSW) 3,567 5.4 -18.5°
Reaches altitude 10° 22:19:33 10° 227° (SW) 2,793 4.6 -18.7°
Enters shadow 22:21:25 14° 212° (SSW) 2,570 4.3 -18.8°
